Home > Weather > Schleswig > Past weeks

Flag for Germany Past Weather in Schleswig, Schleswig-Holstein, Germany — Yesterday and Last 2 Weeks

Now
59 °F

Cool.


Feels Like: 60 °F
Forecast: 55 / 69 °F
Wind: 3 mph from Northeast

Location: Schleswig-Jagel

Current Time: Jul 29, 2016 at 6:18:30 AM

Latest Report: Jul 29, 2016 at 5:20 AM


Visibility: 5 mi

Pressure: 29.80 "Hg

Humidity: 94%

Dew Point: 57 °F

Location of SchleswigLocation

Past Weather in Schleswig — Graph

°F

Schleswig Temperature Yesterday

Maximum temperature yesterday: 72 °F (at 4:20 PM)
Minimum temperature yesterday: 57 °F (at 5:20 AM)
Average temperature yesterday: 64 °F

High & Low Weather Summary for the Past Weeks

 TemperatureHumidityPressure
High82 °F (Jul 20, 4:20 PM)100% (Jul 16, 12:20 PM)30.18 "Hg (Jul 16, 12:20 PM)
Low48 °F (Jul 14, 4:20 AM)42% (Jul 23, 2:20 PM)29.83 "Hg (Jul 29, 2:20 AM)
Average65 °F78%30.04 "Hg
* Reported Jul 14 4:20 AM — Jul 29 4:20 AM, Schleswig, Weather by CustomWeather, © 2016

Note: Actual official high and low records may vary slightly from our data, if they occured in-between our weather recording intervals... More about our weather records

Advertising

Schleswig Weather History for the Previous 24 Hours

Scroll right to see more
 ConditionsComfort  
Time TempWeatherWind HumidityBarometerVisibility
4:20 AM
Fri, Jul 29
61 °FCool.6 mph88%29.83 "Hg4 mi
3:20 AM63 °FMild.3 mph77%29.83 "Hg5 mi
2:20 AM63 °FMild.6 mph77%29.83 "Hg4 mi
1:20 AM63 °FMild.6 mph73%29.86 "Hg5 mi
12:20 AM61 °FCool.5 mph83%29.86 "Hg5 mi
11:20 PM
Thu, Jul 28
61 °FCool.5 mph77%29.89 "Hg4 mi
10:20 PM63 °FMild.3 mph68%29.89 "Hg5 mi
9:20 PM63 °FMild.5 mph68%29.89 "HgN/A
8:20 PM66 °FMild.6 mph64%29.89 "Hg5 mi
7:20 PM68 °FMild.8 mph53%29.92 "HgN/A
6:20 PM70 °FMild.7 mph46%29.92 "Hg3 mi
5:20 PM72 °FMild.9 mph44%29.92 "Hg4 mi
4:20 PM72 °FPassing clouds.10 mph47%29.92 "HgN/A
3:20 PM70 °FScattered clouds.8 mph50%29.95 "HgN/A
2:20 PM70 °FScattered clouds.7 mph53%29.95 "HgN/A
1:20 PM70 °FScattered clouds.8 mph57%29.95 "HgN/A
12:20 PM66 °FPassing clouds.5 mph64%29.98 "HgN/A
11:20 AM64 °FScattered clouds.2 mph68%29.98 "HgN/A
10:20 AM64 °FScattered clouds.8 mph73%29.98 "HgN/A
9:20 AM63 °FPartly sunny.3 mph77%29.98 "HgN/A
8:20 AM63 °FScattered clouds.2 mph77%29.95 "HgN/A
7:20 AM59 °FScattered clouds.5 mph88%29.95 "HgN/A
6:20 AM57 °FPassing clouds.3 mph94%29.95 "HgN/A
Weather by CustomWeather, © 2016

See weather overviewHow to use our weather pages